Change the Weather History Date:

Wednesday, April 24, 2013

  Actual Average (KDFW) Record (KDFW)
Temperature  
Mean Temperature 51 °F 68 °F  
Max Temperature 62 °F 78 °F 91 °F (1984)
Min Temperature 41 °F 57 °F 37 °F (2013)
Degree Days  
Heating Degree Days 14 1  
Month to date heating degree days 77  
Since 1 July heating degree days 2270  
Cooling Degree Days 0 4  
Month to date cooling degree days 70  
Year to date cooling degree days 109  
Growing Degree Days 1 (Base 50)    
Moisture  
Dew Point 36 °F    
Average Humidity 61    
Maximum Humidity 82    
Minimum Humidity 38    
Precipitation  
Precipitation 0.03 in 0.13 in 2.16 in (1914)
Month to date precipitation 2.30  
Year to date precipitation 10.58  
Snow  
Snow 0.00 in 0.00 in 0.00 in ()
Month to date snowfall 0.0  
Since 1 July snowfall 1.2  
Snow Depth -    
Sea Level Pressure  
Sea Level Pressure 30.26 in    
Wind  
Wind Speed 14 mph (North)    
Max Wind Speed 17 mph    
Max Gust Speed 26 mph    
Visibility 10 miles    
Events      
T = Trace of Precipitation, MM = Missing Value Source: NWS Daily Summary

Daily Weather History Graph

Daily Weather History Graph

Search for Another Location

Airport or City:

Trip Planner

Search our weather history database for the weather conditions in past years. The results will help you decide how hot, cold, wet, or windy it might be!

Date:

Astronomy

Apr. 24, 2013 Rise Set
Actual Time 6:44 AM CDT 8:01 PM CDT
Civil Twilight 6:19 AM CDT 8:27 PM CDT
Nautical Twilight 5:48 AM CDT 8:58 PM CDT
Astronomical Twilight 5:16 AM CDT 9:30 PM CDT
Moon 7:08 PM CDT (4/24) 5:45 AM CDT (4/24)
Length of Visible Light 14h 08m
Length of Day
13h 16m
Waxing Gibbous, 98% of the Moon is Illuminated
Apr 24
Waxing Gibbous
Apr 25
Full
May 2
Last Quarter
May 9
New
May 17
First Quarter

Hourly Weather History & Observations

Time (CDT) Temp. Windchill Dew Point Humidity Pressure Visibility Wind Dir Wind Speed Gust Speed Precip Events Conditions
12:25 AM 44.6 °F 37.2 °F 37.4 °F 76% 30.17 in 10.0 mi NNW 17.3 mph 23.0 mph N/A   Overcast
12:45 AM 42.8 °F 35.1 °F 37.4 °F 81% 30.18 in 10.0 mi NNW 16.1 mph 26.5 mph N/A   Overcast
12:53 AM 43.0 °F 35.7 °F 37.0 °F 80% 30.19 in 10.0 mi NNW 15.0 mph 21.9 mph N/A   Overcast
1:53 AM 42.1 °F 33.9 °F 37.0 °F 82% 30.17 in 10.0 mi North 17.3 mph 25.3 mph 0.03 in   Overcast
2:53 AM 42.1 °F 34.9 °F 36.0 °F 79% 30.20 in 10.0 mi NNW 13.8 mph 26.5 mph N/A   Overcast
3:53 AM 42.1 °F 33.9 °F 36.0 °F 79% 30.23 in 10.0 mi NNW 17.3 mph 25.3 mph N/A   Overcast
5:53 AM 41.0 °F 34.7 °F 34.0 °F 76% 30.25 in 10.0 mi North 10.4 mph 21.9 mph N/A   Overcast
6:53 AM 41.0 °F 32.8 °F 33.1 °F 73% 30.28 in 10.0 mi North 16.1 mph 24.2 mph N/A   Overcast
7:53 AM 41.0 °F 33.1 °F 33.1 °F 73% 30.29 in 10.0 mi North 15.0 mph 19.6 mph N/A   Overcast
8:39 AM 42.8 °F 35.1 °F 33.8 °F 70% 30.30 in 10.0 mi NNE 16.1 mph 23.0 mph N/A   Scattered Clouds
8:53 AM 44.1 °F 36.5 °F 33.1 °F 65% 30.30 in 10.0 mi NNE 17.3 mph - N/A   Partly Cloudy
9:11 AM 44.6 °F 38.8 °F 33.8 °F 66% 30.31 in 10.0 mi North 11.5 mph 20.7 mph N/A   Mostly Cloudy
9:53 AM 46.0 °F 39.9 °F 34.0 °F 63% 30.32 in 10.0 mi NNE 13.8 mph 20.7 mph N/A   Mostly Cloudy
10:03 AM 46.4 °F 40.1 °F 33.8 °F 62% 30.32 in 10.0 mi NNE 15.0 mph 20.7 mph N/A   Scattered Clouds
10:53 AM 48.0 °F - 33.1 °F 56% 30.31 in 10.0 mi North 13.8 mph - N/A   Partly Cloudy
11:53 AM 51.1 °F - 35.1 °F 54% 30.30 in 10.0 mi NNE 11.5 mph - N/A   Clear
12:53 PM 54.0 °F - 35.1 °F 49% 30.29 in 10.0 mi North 12.7 mph 18.4 mph N/A   Clear
1:53 PM 55.9 °F - 36.0 °F 47% 30.27 in 10.0 mi North 13.8 mph 20.7 mph N/A   Clear
2:53 PM 59.0 °F - 36.0 °F 42% 30.25 in 10.0 mi North 13.8 mph 18.4 mph N/A   Clear
3:53 PM 59.0 °F - 36.0 °F 42% 30.23 in 10.0 mi East 8.1 mph 17.3 mph N/A   Clear
4:53 PM 61.0 °F - 37.0 °F 41% 30.22 in 10.0 mi Variable 5.8 mph - N/A   Clear
5:53 PM 61.0 °F - 35.1 °F 38% 30.22 in 10.0 mi North 8.1 mph - N/A   Clear
6:53 PM 60.1 °F - 37.0 °F 42% 30.22 in 10.0 mi NNE 8.1 mph - N/A   Clear
7:53 PM 57.9 °F - 37.0 °F 46% 30.23 in 10.0 mi NNE 3.5 mph - N/A   Overcast
8:53 PM 55.9 °F - 39.0 °F 53% 30.26 in 10.0 mi NE 3.5 mph - N/A   Mostly Cloudy
9:53 PM 55.0 °F - 39.0 °F 55% 30.29 in 10.0 mi North 4.6 mph - N/A   Overcast
10:53 PM 53.1 °F - 39.9 °F 61% 30.29 in 10.0 mi NNE 4.6 mph - N/A   Mostly Cloudy
11:53 PM 51.1 °F - 39.9 °F 66% 30.30 in 10.0 mi NNE 4.6 mph - N/A   Mostly Cloudy